Starlink 35464

operational
NORAD ID: 65881 Int'l Des: 2025-223 Owner: SPXS Country: US Constellation: starlink
LEOCIRCULAR

About Starlink 35464

Description loading...

Live Position

Loading 3D Globe...

Upcoming Passes

Altitude History

Altitude vs Time

uPlot chart will show altitude changes over time

Two-Line Element Set

1 65881U 25223AD 25318.85636618 .00049970 00000-0 12481-2 0 9991
2 65881 53.1579 108.2957 0001125 110.4849 249.6277 15.39693019 6614
Epoch: Nov 14, 2025 • Age: 6 hours

Current Status

Altitude 466.1 km
Velocity 7.63 km/s
Sub-Earth Point -53.06°S, 80.6°W
Launch Date Oct 3, 2025
Age 0.1 years
Type internet

Technical Details

Classification Payload
Mass 575.00 kg
Dry Mass 530.00 kg
Total Mass 575.00 kg
Length 0.30 m
Diameter 4.10 m
Span 29.00 m
Shape Box + pan
Manufacturer SPXS
Bus Type Starlink V2MO
Phase Status In Orbit
Owner/State SPXS/US

Large Constellations

Loading constellations...